TANYUSHA 2 (42912 NORAD) Tracking and Keplerian Element Data

This shows tracking and keplerian element data for the satellite.

Feedback or suggestion? Click here.




ElementValue
Catalog42912
NameTANYUSHA 2
Epoch Orbit7004
Epoch Day312.68846245
Epoch Year2018
RAAN351.0598
Inclination51.642
Eccentricity0.0005883
Argument of Perigee37.0896
Mean Anonmoly56.0336
Mean Motion15.70420063
Decay Rate0.0003225
L11 42912U 98067NB 18312.68846245 .00032250 00000-0 26161-3 0 9997
L22 42912 51.6420 351.0598 0005883 37.0896 56.0336 15.70420063 70048

Live tracking and technical data element details for TANYUSHA 2 (NORAD 42912). TANYUSHA 2 can be tracked NOW for your location showing map with azimuth and elevation plus other details from your city location.

Track the satellite on the map from your city or location and see movement details for azimuth, elevation, latitude, longitude, range, height, and movement on the map or in text.







IsCatalogInMostPopularTable: catalog: 42912, numindb: 143
Update: records affected: 1



GetName: 42912 TANYUSHA 2

Hit Count: updated at: Wed, 14 Nov 2018 11:23:36 GMT